When you browse on this site, cookies collect data to enhance your experience and personalize the content and advertising you see.
Visit our Privacy Policy to learn more. By continuing to use the site, you agree to this use of cookies and data.
  • In Belgium
  • List of Countries
  • For 7 days
  • Water Temperature
  • Satellite Maps
  • Weather Map
  • Weather Widgets
  • user-avatar
    Login

    Hourly Weather Sambor

    Today, 18 November, Sunday

    Time Temperature Precipitation Wind Pressure Humidity
    00:00 -1°C° 0 mm 1 mps 748 mmHg 72%
    01:00 -1°C° 0 mm 1 mps 747 mmHg 73%
    02:00 0°C° 0 mm 1 mps 747 mmHg 74%
    03:00 0°C° 0 mm 1 mps 747 mmHg 75%
    04:00 -1°C° 0 mm 1 mps 746 mmHg 76%
    05:00 -2°C° 0 mm 0 mps 746 mmHg 77%
    06:00 -2°C° 0 mm 0 mps 745 mmHg 78%
    07:00 -2°C° 0 mm 0 mps 745 mmHg 78%
    08:00 -1°C° 0 mm 1 mps 744 mmHg 76%
    09:00 0°C° 0 mm 1 mps 744 mmHg 70%
    10:00 +1°C° 0 mm 1 mps 744 mmHg 65%
    11:00 +3°C° 0 mm 1 mps 743 mmHg 59%
    12:00 +3°C° 0 mm 1 mps 743 mmHg 59%
    13:00 +3°C° 0 mm 1 mps 742 mmHg 58%
    14:00 +3°C° 0 mm 1 mps 742 mmHg 58%
    15:00 +2°C° 0.1 mm 1 mps 741 mmHg 61%
    16:00 +2°C° 0.1 mm 1 mps 741 mmHg 64%
    17:00 +1°C° 0.1 mm 1 mps 740 mmHg 67%
    18:00 +1°C° 0 mm 1 mps 740 mmHg 68%
    19:00 +1°C° 0 mm 1 mps 740 mmHg 69%
    20:00 -1°C° 0 mm 0 mps 739 mmHg 70%
    21:00 0°C° 0 mm 1 mps 739 mmHg 69%
    22:00 0°C° 0 mm 1 mps 739 mmHg 68%
    23:00 0°C° 0 mm 1 mps 739 mmHg 68%

    Tomorrow, 19 November, Monday

    Time Temperature Precipitation Wind Pressure Humidity
    00:00 0°C° 0 mm 1 mps 739 mmHg 68%
    01:00 -2°C° 0 mm 2 mps 738 mmHg 68%
    02:00 -2°C° 0 mm 2 mps 738 mmHg 68%
    03:00 -3°C° 0 mm 2 mps 738 mmHg 69%
    04:00 -3°C° 0 mm 2 mps 738 mmHg 71%
    05:00 -3°C° 0 mm 2 mps 737 mmHg 73%
    06:00 -3°C° 0 mm 2 mps 737 mmHg 74%
    07:00 -2°C° 0 mm 3 mps 737 mmHg 75%
    08:00 -2°C° 0 mm 3 mps 737 mmHg 76%
    09:00 -2°C° 0 mm 4 mps 737 mmHg 75%
    10:00 -2°C° 0 mm 4 mps 738 mmHg 74%
    11:00 -1°C° 0 mm 4 mps 738 mmHg 74%
    12:00 -1°C° 0.1 mm 4 mps 738 mmHg 74%
    13:00 0°C° 0.1 mm 4 mps 738 mmHg 75%
    14:00 0°C° 0.1 mm 4 mps 738 mmHg 75%
    15:00 -1°C° 0.1 mm 4 mps 738 mmHg 78%
    16:00 -1°C° 0.1 mm 4 mps 738 mmHg 80%
    17:00 -1°C° 0.1 mm 4 mps 738 mmHg 82%
    18:00 -1°C° 0 mm 4 mps 738 mmHg 82%
    19:00 -2°C° 0 mm 4 mps 739 mmHg 83%
    20:00 -2°C° 0 mm 4 mps 739 mmHg 84%
    21:00 -2°C° 0 mm 4 mps 739 mmHg 84%
    22:00 -1°C° 0 mm 3 mps 739 mmHg 85%
    23:00 -2°C° 0 mm 3 mps 740 mmHg 85%

    Day after tomorrow, 20 November, Tuesday

    Time Temperature Precipitation Wind Pressure Humidity
    00:00 -2°C° 0 mm 3 mps 740 mmHg 86%
    01:00 -2°C° 0 mm 3 mps 740 mmHg 87%
    02:00 -2°C° 0 mm 3 mps 740 mmHg 87%
    03:00 -4°C° 0 mm 3 mps 740 mmHg 86%
    04:00 -4°C° 0 mm 3 mps 740 mmHg 85%
    05:00 -4°C° 0 mm 3 mps 739 mmHg 83%
    06:00 -4°C° 0 mm 4 mps 739 mmHg 83%
    07:00 -4°C° 0 mm 4 mps 739 mmHg 82%
    08:00 -4°C° 0 mm 4 mps 739 mmHg 82%
    09:00 -3°C° 0 mm 4 mps 739 mmHg 79%
    10:00 -2°C° 0 mm 4 mps 739 mmHg 76%
    11:00 -1°C° 0 mm 5 mps 739 mmHg 72%
    12:00 0°C° 0 mm 5 mps 739 mmHg 72%
    13:00 0°C° 0 mm 5 mps 738 mmHg 71%
    14:00 +1°C° 0 mm 6 mps 737 mmHg 71%
    15:00 -1°C° 0 mm 6 mps 737 mmHg 74%
    16:00 0°C° 0 mm 5 mps 737 mmHg 78%
    17:00 -1°C° 0 mm 5 mps 737 mmHg 81%
    18:00 -1°C° 0 mm 5 mps 737 mmHg 82%
    19:00 -1°C° 0 mm 5 mps 737 mmHg 83%
    20:00 -1°C° 0 mm 5 mps 737 mmHg 84%
    21:00 -1°C° 0.2 mm 5 mps 737 mmHg 84%
    22:00 -1°C° 0.2 mm 5 mps 737 mmHg 85%
    23:00 -1°C° 0.2 mm 5 mps 737 mmHg 85%

    21 November, Wednesday

    Time Temperature Precipitation Wind Pressure Humidity
    00:00 -1°C° 0.5 mm 5 mps 737 mmHg 86%
    01:00 -1°C° 0.5 mm 5 mps 737 mmHg 88%
    02:00 -1°C° 0.5 mm 5 mps 737 mmHg 89%
    03:00 -1°C° 0.1 mm 4 mps 737 mmHg 89%
    04:00 -1°C° 0.1 mm 4 mps 737 mmHg 90%
    05:00 -1°C° 0.1 mm 4 mps 737 mmHg 90%
    06:00 -1°C° 0 mm 4 mps 737 mmHg 90%
    07:00 -1°C° 0 mm 4 mps 737 mmHg 90%
    08:00 -2°C° 0 mm 4 mps 737 mmHg 91%
    09:00 -1°C° 0 mm 4 mps 738 mmHg 89%
    10:00 -1°C° 0 mm 4 mps 738 mmHg 87%
    11:00 0°C° 0 mm 4 mps 738 mmHg 85%
    12:00 0°C° 0 mm 4 mps 738 mmHg 85%
    13:00 0°C° 0 mm 4 mps 738 mmHg 85%
    14:00 +1°C° 0 mm 4 mps 738 mmHg 85%
    15:00 0°C° 0 mm 4 mps 738 mmHg 87%
    16:00 0°C° 0 mm 4 mps 738 mmHg 89%
    17:00 -1°C° 0 mm 4 mps 738 mmHg 90%
    18:00 -1°C° 0 mm 4 mps 739 mmHg 90%
    19:00 -1°C° 0 mm 4 mps 739 mmHg 90%
    20:00 -1°C° 0 mm 4 mps 739 mmHg 90%
    21:00 -1°C° 0 mm 4 mps 739 mmHg 90%
    22:00 -1°C° 0 mm 4 mps 740 mmHg 90%
    23:00 -2°C° 0 mm 4 mps 740 mmHg 90%

    22 November, Thursday

    Time Temperature Precipitation Wind Pressure Humidity
    00:00 -2°C° 0 mm 4 mps 740 mmHg 90%
    01:00 -1°C° 0 mm 4 mps 740 mmHg 90%
    02:00 -1°C° 0 mm 4 mps 740 mmHg 90%
    03:00 -1°C° 0 mm 4 mps 740 mmHg 90%
    04:00 -1°C° 0 mm 4 mps 740 mmHg 90%
    05:00 -1°C° 0 mm 4 mps 740 mmHg 90%
    06:00 -2°C° 0 mm 4 mps 741 mmHg 90%
    07:00 -2°C° 0 mm 4 mps 741 mmHg 90%
    08:00 -2°C° 0 mm 4 mps 741 mmHg 90%
    09:00 -1°C° 0 mm 4 mps 741 mmHg 89%
    10:00 -1°C° 0 mm 4 mps 742 mmHg 87%
    11:00 -1°C° 0 mm 4 mps 742 mmHg 86%
    12:00 0°C° 0 mm 4 mps 742 mmHg 85%
    13:00 0°C° 0 mm 4 mps 742 mmHg 85%
    14:00 0°C° 0 mm 4 mps 742 mmHg 84%
    15:00 0°C° 0 mm 4 mps 742 mmHg 85%
    16:00 0°C° 0 mm 3 mps 742 mmHg 87%
    17:00 0°C° 0 mm 3 mps 742 mmHg 88%
    18:00 0°C° 0 mm 3 mps 743 mmHg 89%
    19:00 -1°C° 0 mm 3 mps 743 mmHg 89%
    20:00 -1°C° 0 mm 3 mps 743 mmHg 89%
    21:00 -1°C° 0 mm 3 mps 744 mmHg 90%
    22:00 -1°C° 0 mm 3 mps 744 mmHg 91%
    23:00 -1°C° 0 mm 3 mps 744 mmHg 91%

    23 November, Friday

    Time Temperature Precipitation Wind Pressure Humidity
    00:00 -2°C° 0 mm 3 mps 744 mmHg 91%
    01:00 -2°C° 0 mm 3 mps 744 mmHg 91%
    02:00 -2°C° 0 mm 3 mps 744 mmHg 91%
    03:00 -2°C° 0 mm 3 mps 744 mmHg 91%
    04:00 -2°C° 0 mm 3 mps 744 mmHg 91%
    05:00 -2°C° 0 mm 2 mps 744 mmHg 91%
    06:00 -2°C° 0 mm 2 mps 745 mmHg 91%
    07:00 -2°C° 0 mm 2 mps 745 mmHg 91%
    08:00 -2°C° 0 mm 2 mps 745 mmHg 91%
    09:00 +1°C° 0 mm 2 mps 745 mmHg 87%
    10:00 +2°C° 0 mm 2 mps 745 mmHg 83%
    11:00 +3°C° 0 mm 2 mps 745 mmHg 78%
    12:00 +4°C° 0 mm 2 mps 745 mmHg 77%
    13:00 +4°C° 0 mm 2 mps 745 mmHg 75%
    14:00 +5°C° 0 mm 2 mps 745 mmHg 73%
    15:00 +4°C° 0 mm 2 mps 745 mmHg 78%
    16:00 +3°C° 0 mm 2 mps 744 mmHg 82%
    17:00 +2°C° 0 mm 2 mps 744 mmHg 86%
    18:00 +1°C° 0 mm 2 mps 744 mmHg 87%
    19:00 +1°C° 0 mm 2 mps 744 mmHg 88%
    20:00 +1°C° 0 mm 2 mps 744 mmHg 89%
    21:00 +1°C° 0 mm 2 mps 743 mmHg 89%
    22:00 +1°C° 0 mm 2 mps 743 mmHg 90%
    23:00 +1°C° 0 mm 2 mps 743 mmHg 90%
    Show more